Regional Weather Roundup
Issued by NWS

Home | Current Version | Previous Version | Graphics & Text | Print | Product List | Glossary Off
Versions: 1 2 3 4 5 6 7 8 9 10 11 12 13 14 15 16 17 18 19 20 21 22 23 24 25 26 27 28 29 30 31 32 33 34 35 36 37 38 39 40 41 42 43 44 45 46 47 48 49 50

000
ASUS43 KMKX 220300
RWRWI

WISCONSIN REGIONAL WEATHER ROUNDUP
NATIONAL WEATHER SERVICE MILWAUKEE/SULLIVAN WI
1000 PM CDT MON AUG 21 2017

NOTE: "FAIR" INDICATES FEW OR NO CLOUDS BELOW 12,000 FEET WITH NO
SIGNIFICANT WEATHER AND/OR OBSTRUCTIONS TO VISIBILITY.

WIZ001-002-006>008-014>016-023>028-220400-
NORTHWEST WISCONSIN

CITY           SKY/WX    TMP DP  RH WIND       PRES   REMARKS
SUPERIOR ARPT  LGT RAIN  61  60  98 NE7       29.81S
ASHLAND        CLOUDY    62  58  86 N6        29.82R
HAYWARD        CLOUDY    69  64  84 SW7       29.83S
SIREN          CLOUDY    68  63  83 W9        29.83S
CUMBERLAND     CLOUDY    64  63  94 SW7       29.85S
RICE LAKE      CLOUDY    64  62  91 S5        29.87R
CHETEK         CLOUDY    65  63  92 MISG      29.86R
LADYSMITH      CLOUDY    68  66  94 SW6       29.88R
EAU CLAIRE     CLOUDY    68  63  84 S6        29.87R
MENOMONIE      CLOUDY    65  63  91 SW5       29.88R
NEW RICHMOND   CLOUDY    66  64  91 SW7       29.86S
OSCEOLA        CLOUDY    67  67 100 CALM      29.87F
$$

WIZ003>005-009-010-017-018-220400-
NORTH CENTRAL WISCONSIN

CITY           SKY/WX    TMP DP  RH WIND       PRES   REMARKS
MANITOWISH WTR CLOUDY    66  66 100 CALM      29.83F
ARBOR VITAE    CLOUDY    67  65  94 SW3       29.84F
WOODRUFF       CLOUDY    67  65  94 SW3       29.84F
RHINELANDER    CLOUDY    67  67 100 SW7       29.85F
EAGLE RIVER    CLOUDY    66  65  99 CALM      29.84F
LAND O LAKES   CLOUDY    66  65  98 CALM      29.85F
PHILLIPS       CLOUDY    68  68 100 SW3       29.85F
TOMAHAWK       FOG       65  64  96 CALM      29.85F VSB 1
MEDFORD        CLOUDY    66  64  93 SW8       29.87S
MERRILL        CLOUDY    66  66 100 SW6       29.86F
$$

WIZ029-030-035-036-043>047-220400-
CENTRAL WISCONSIN

CITY           SKY/WX    TMP DP  RH WIND       PRES   REMARKS
WAUSAU         MOCLDY    68  63  84 W15G21    29.86R
MOSINEE        CLEAR     66  64  94 W10G18    29.88R
MARSHFIELD     MOCLDY    66  63  90 W6        29.88R
STEVENS POINT  MOCLDY    66  66  99 S6        29.84F
WAUPACA        LGT RAIN  73  66  79 SE5       29.83F
WAUTOMA        LGT RAIN  70  67  90 S3        29.83F
WISC RAPIDS    CLOUDY    68  66  93 NW15      29.89R
CAMP DOUGLAS   NOT AVBL
$$

WIZ011>013-019>022-031-037>040-048>050-220400-
NORTHEAST WISCONSIN

CITY           SKY/WX    TMP DP  RH WIND       PRES   REMARKS
ANTIGO         CLOUDY    66  66 100 CALM      29.85F
SHAWANO        CLOUDY    74  66  75 S5        29.83F
OCONTO         CLOUDY    73  66  78 SW6       29.82F
STURGEON BAY   PTCLDY    71  68  90 S8        29.83F
GREEN BAY      CLOUDY    73  71  93 S5        29.83F
MANITOWOC      NOT AVBL
APPLETON       PTCLDY    72  68  88 SW7       29.84F
CLINTONVILLE   CLOUDY    72  63  73 S6        29.83F
OSHKOSH        CLOUDY    72  68  87 S8        29.84F
$$

WIZ032>034-041-042-053>061-220400-
SOUTHWEST WISCONSIN

CITY           SKY/WX    TMP DP  RH WIND       PRES   REMARKS
LA CROSSE      CLOUDY    69  65  86 NW9       29.88R
SPARTA         CLOUDY    64  63  97 N6        29.88R
VIROQUA        CLOUDY    65  65 100 CALM      29.86R
BOSCOBEL       CLOUDY    70  66  87 SW6       29.84F
PRAIRIE DU CHI CLOUDY    68  64  88 SE5       29.84R
PLATTEVILLE    CLOUDY    70  70 100 SE8       29.90F
$$

WIZ056-057-062-063-064-067-068-220400-
SOUTH CENTRAL WISCONSIN

CITY           SKY/WX    TMP DP  RH WIND       PRES   REMARKS
REEDSBURG      LGT RAIN  69  69 100 SE8       29.82F
BARABOO/DELLS  DRIZZLE   70  65  85 S7        29.85F
LONE ROCK      NOT AVBL
MINERAL POINT  LGT RAIN  72  70  94 SE8       29.89F
MADISON        CLOUDY    74  68  81 S10       29.88F
MIDDLETON      CLOUDY    73  68  83 S6        29.92F
WATERTOWN      MOCLDY    71  71  99 SW9       29.91S
MONROE         CLOUDY    72  68  88 SW10      29.95S
JANESVILLE     CLOUDY    73  72  94 SW7       29.93S
$$

WIZ051-052-058>065-066-070>072-220400-
SOUTHEAST WISCONSIN

CITY           SKY/WX    TMP DP  RH WIND       PRES   REMARKS
MILWAUKEE      CLOUDY    76  69  79 SW10      29.90F
WAUKESHA       NOT AVBL
MILWAUKEE/TIMM CLOUDY    73  64  73 SW7       29.92F
RACINE         CLOUDY    76  70  82 SW9       29.92F
KENOSHA        CLOUDY    76  69  79 SW9       29.92F
FOND DU LAC    CLOUDY    72  65  78 SW7       29.86F
SHEBOYGAN      CLOUDY    70  70 100 SW7       29.86F
WEST BEND      CLOUDY    70  68  94 S5        29.89F
JUNEAU         CLOUDY    69  66  91 S5        29.91F
$$

LSZ147-162-220400-
LAKE SUPERIOR

STATION/POSITION TIME  TEMP    WIND        PRES    WAVE
                       AIR SEA DIR/SP/G            HT/PER
                 (UTC) (F)     (DEG/KT/KT) (MB)    (FT/S)
W MID LAKE BUOY  0150   63 60   50/  8/ 10 1009.5F   0
DEVILS ISLAND    0200   61      10/  6/  7 1011.2R
PORT WING        0207   63      50/ 18     1009.8
SAXON HARBOR     0240   65     330/ 10/ 11 1008.8S
$$

LMZ867-665-643>646-220400-
LAKE MICHIGAN

STATION/POSITION TIME  TEMP    WIND        PRES    WAVE
                       AIR SEA DIR/SP/G            HT/PER
                 (UTC) (F)     (DEG/KT/KT) (MB)    (FT/S)
S GREEN BAY BUOY 0230   73 72  180/ 14/ 17 1010.2F
N MID LAKE BUOY  0150   70 68  200/ 14/ 17 1011.5F   1/ 4
NORTHPORT PIER   0240   71     170/  5/  9 1009.8F
KEWAUNEE LAKESHO 0230   68     180/  8/ 10 1010.3F
SHEBOYGAN LAKESH 0200   73     190/ 10/ 11 1011.6F
PORT WASHINGTON  0240   74     240/  4/  6 1012.9F
ATWATER BUOY     0109   77 69  220/ 10/ 12 1013.5F
MILWAUKEE LAKESH 0230   77     220/ 10/ 11   N/A
S MID LAKE BUOY  0150   75 72  200/ 12/ 14 1013.5F   1/ 3
KENOSHA   LAKESH 0200   78     220/  7/ 14 1013.9
$$

TC  - TEMPERATURE IN CELSIUS
VSB - VISIBILITY IN STATUTE MILES
WCI - WIND CHILL INDEX
HX  - HEAT INDEX





USA.gov is the U.S. government's official web portal to all federal, state and local government web resources and services.